sat.trackr.live / text

‹ back to catalog

ALOS-2

NORAD 39766 · 2014-029A

PAYLOAD ACTIVE UNKNOWN

§ Identity

Operator
Country
JPN
Launch date
2014-05-24
Launch site
TANSC
Launch vehicle
Mass (kg)
RCS (m²)
4.10

Purposes: earth_obs

External: N2YO · Heavens-Above · Gunter

§ Orbital elements

Epoch: 2026-05-25T05:04:44.509728Z

Period
97.33 min
Inclination
97.9221°
Eccentricity
0.0001572
Mean motion
14.79463287 rev/d
Perigee alt
629.9 km
Apogee alt
632.1 km
Semi-major
7,009.2 km
B*
-1.4191e-5
RAAN
242.7047°
Arg perigee
91.1209°
Mean anomaly
269.0183°
Rev number
64,818

§ Raw data

ALOS-21 39766U 14029A   26145.21162627 -.00000157  00000+0 -14191-4 0  99962 39766  97.9221 242.7047 0001572  91.1209 269.0183 14.79463287648183

JSON: /api/v1/satellites/39766 · /tle

For live sub-satellite position, see the globe view (requires WebGL).

§ Visibility from observer

Set your observer location to see the next 7 days of passes ≥ 10°. The values pass through the URL so the page stays shareable.

No JS? Fill the form by hand. The geolocation button needs JavaScript.

§ Radio — SatNOGS DB

ModeDescriptionDownlinkUplink
FM S-Band telemetry 2.220 GHz

1 transmitter · refreshed weekly from db.satnogs.org